Preview of NWS' New Version of Forecast
This preview is not operational and should not be used for support decisions.
Latest weather observations around

Corsicana, Campbell Field-Corsicana Municipal Airport (KCRS)

Using English Units (Switch to International System of Units)
Date/ Time (CDT) Wind (mph) Vis. (mi) Weather Sky Cond. Temp (°F) Rel. Humidity Wind Chill (°F) Heat Index (°F) Pressure Precip. (in)
Air Dwpt 6 hour Altimeter (inHg) Sea level (inHg) 1 hr 3 hr 6 hr
Max Min
Mar 21 20:53 ENE 3 10 Clear CLR 64 40     41%     30.13 30.13      
Mar 21 19:53 W 3 10 Clear CLR 66 41     40%     30.12 30.12      
Mar 21 18:53 W 5 10 Clear CLR 72 40     31%   70 30.12 30.12      
Mar 21 17:53 W 8 10 Clear CLR 73 38     28%   71 30.13 30.12      
Mar 21 16:53 WNW 10 10 Clear CLR 76 38     25%   74 30.14 30.13      
Mar 21 15:53 NW 8 10 Clear CLR 76 38     25%   74 30.15 30.15      
Mar 21 14:53 NW 10 10 Clear CLR 75 39     27%   74 30.18 30.17      
Mar 21 13:53 NW 8 10 Clear CLR 74 38     27%   72 30.2 30.2      
Mar 21 12:53 WNW 9 10 Clear CLR 72 41     33%   70 30.23 30.22      
Mar 21 11:53 W 8 10 Clear CLR 69 43     39%     30.25 30.24      
Mar 21 10:53 WSW 7 10 Clear CLR 63 44     50%     30.26 30.26      
Mar 21 09:53 WSW 7 8 Clear CLR 57 44     62%     30.26 30.26      
Mar 21 08:53 WSW 8 10 Clear CLR 49 42     77% 45   30.25 30.25      
Mar 21 07:53 WSW 7 10 Clear CLR 42 38     85% 38   30.24 30.24      
Mar 21 06:53 WSW 7 9 Clear CLR 42 38     85% 38   30.22 30.22      
Mar 21 05:53 WSW 8 10 Clear CLR 42 38     85% 37   30.22 30.21      
Mar 21 04:53 WSW 6 10 Clear CLR 43 39     86% 39   30.21 30.2      
Mar 21 03:53 WSW 7 10 Clear CLR 43 40     89% 39   30.21 30.21      
Mar 21 02:53 WSW 5 9 Clear CLR 45 39     80% 43   30.23 30.23      
Mar 21 01:53 W 3 10 Clear CLR 46 39     76% 45   30.24 30.24      
Mar 21 00:53 W 5 10 Clear CLR 49 39     69% 47   30.25 30.25      
Mar 20 23:53 W 5 10 Clear CLR 49 42     77% 47   30.26 30.25      
Mar 20 22:53 NW 5 10 Clear CLR 50 43     77%     30.26 30.26      
Mar 20 21:53 Calm 10 Clear CLR 53 44     71%     30.24 30.24      
Mar 20 20:53 Calm 10 Clear CLR 55 44     66%     30.23 30.22      
Mar 20 19:53 NNE 3 10 Clear CLR 59 44     58%     30.22 30.22      
Mar 20 18:53 N 9 10 Mostly Clear FEW085 FEW100 63 44     50%     30.21 30.21     0
Mar 20 17:53 N 7 10 Partly Cloudy SCT080 64 45     50%     30.2 30.2      
Mar 20 16:53 NNE 11 10 Mostly Cloudy BKN095 64 46     52%     30.22 30.22      
Mar 20 15:53 N 14 10 Clear   65 47     52%     30.23 30.22   0  
Mar 20 14:53 NW 8 10 Cloudy BKN039 BKN050 OVC060 65 51     61%     30.23 30.22      
Mar 20 13:53 W 9 10 Cloudy FEW049 BKN065 OVC075 64 50     60%     30.26 30.25 0    
Mar 20 12:53 WNW 16 10 Cloudy BKN044 OVC065 65 48     54%     30.27 30.27      
Mar 20 11:53 WSW 10 10 Cloudy BKN048 BKN055 OVC075 68 47     47%     30.27 30.27      
Mar 20 10:53 SW 11 10 Clear CLR 65 46     50%     30.28 30.27      
Mar 20 09:53 SW 7 9 Clear CLR 59 48     67%     30.28 30.27      
Mar 20 08:53 SSW 6 8 Clear CLR 53 45     74%     30.27 30.26      
Mar 20 07:53 SSE 5 7 Clear CLR 48 42     80% 46   30.26 30.25      
Mar 20 06:53 SSE 3 8 Mostly Clear FEW080 47 42     83% 46   30.24 30.24      
Mar 20 05:53 SSE 3 10 Clear CLR 50 41     71%     30.21 30.21      
Mar 20 04:53 SSE 3 10 Clear CLR 49 41     74% 48   30.2 30.19      
Mar 20 03:53 WSW 6 10 Clear CLR 51 40     65%     30.21 30.2      
Mar 20 02:53 SSW 3 10 Clear CLR 53 40     61%     30.22 30.22      
Mar 20 01:53 SSW 3 10 Clear CLR 54 41     61%     30.23 30.22      
Mar 20 00:53 S 7 10 Clear CLR 55 42     62%     30.22 30.22      
Mar 19 23:53 S 7 10 Clear CLR 55 43     64%     30.23 30.22      
Mar 19 22:53 S 6 10 Cloudy OVC110 58 41     53%     30.23 30.23      
Mar 19 21:53 SSW 6 10 Mostly Clear FEW110 59 40     49%     30.23 30.22      
Mar 19 20:53 SSW 5 10 Clear CLR 59 42     53%     30.21 30.21      
Mar 19 19:53 SSW 5 10 Clear CLR 62 40     44%     30.2 30.19      
Mar 19 18:53 S 6 10 Mostly Cloudy BKN110 65 42     43%     30.19 30.18      
Mar 19 17:53 SSE 6 10 Mostly Cloudy BKN120 68 39     35%     30.19 30.18      
Mar 19 16:53 S 10 10 Mostly Clear FEW110 68 40     36%     30.2 30.19      
Mar 19 15:53 S 11 10 Cloudy OVC100 69 39     33%     30.21 30.2      
Mar 19 14:53 SE 8 10 Clear CLR 69 40     35%     30.23 30.22      
Mar 19 13:53 SSE 9 10 Mostly Clear FEW120 68 41     37%     30.28 30.27      
Mar 19 12:53 SSE 10 10 Clear CLR 66 41     40%     30.3 30.29      
Mar 19 11:53 SE 9 10 Mostly Clear FEW120 64 41     43%     30.32 30.31      
Mar 19 10:53 S 3 7 Clear CLR 60 40     47%     30.33 30.32      
Mar 19 09:53 ESE 5 10 Clear CLR 57 43     59%     30.32 30.32      
Mar 19 08:53 ESE 8 10 Clear CLR 52 43     71%     30.31 30.31      
Mar 19 07:53 WSW 6 10 Clear CLR 51 41     68%     30.28 30.28      
Mar 19 06:53 WSW 7 10 Clear CLR 51 40     65%     30.28 30.27      
Mar 19 05:53 SW 6 10 Clear CLR 51 40     65%     30.26 30.26      
Mar 19 04:53 SSW 6 10 Clear CLR 51 39     63%     30.25 30.24      
Mar 19 03:53 S 5 10 Clear CLR 51 39     63%     30.26 30.25      
Mar 19 02:53 SSW 6 9 Clear CLR 52 39     61%     30.27 30.26      
Mar 19 01:53 S 6 10 Clear CLR 54 39     57%     30.27 30.26      
Mar 19 00:53 SE 3 8 Clear CLR 53 40     61%     30.27 30.27      
Mar 18 23:53 S 5 10 Clear CLR 55 37     51%     30.28 30.27      
Mar 18 22:53 S 3 10 Mostly Cloudy BKN043 58 36     44%     30.28 30.27      
Mar 18 21:53 SSE 3 10 Clear CLR 58 39     49%     30.27 30.27      
May 15 13:53 SSE 8 10 Clear CLR 87 64     46%   88 29.98 29.96      
May 14 11:08 S 11 10 Mostly Cloudy BKN032 80 69     69%   83 30.03        
May 13 22:53 SSE 9 10 Clear CLR 79 69     72%   80   29.95      
May 13 12:53 SSE 14 10 Cloudy FEW038 OVC048 83 68     61%   86 30.05 30.03      
May 12 07:53 S 11 7 Cloudy FEW014 BKN025 OVC043 73 69     87%   74 30 29.98      
May 12 02:53 S 13 9 Mostly Clear FEW016 72 67     84%   73 29.95 29.93      
May 11 22:53 SSE 11 10 Clear CLR 75 63     66%   75 29.94 29.92      
May 11 20:53 SSE 9 10 Clear CLR 76 63     64%   76 29.89 29.87      
May 11 11:53 S 16 10 Partly Cloudy SCT040 81 65     58%   83   29.98      
May 11 07:53 S 10 8 Cloudy FEW011 OVC024 70 67     90%     29.99 29.98      
Notice The following observation data may not be complete
Jun 11 16:53     Clear            %     29.91        
Notice The following observation data may not be complete
Jun 11 03:53     Clear            %     29.93        
Notice The following observation data may not be complete
Jun 10 21:53     Clear            %     29.89        
Notice The following observation data may not be complete
Jun 09 16:53     Clear            %     29.9        
Jun 06 02:53 NNW 6 10 Clear CLR 73 71     94%   74 29.82 29.8